Вернуться в каталог

CZ-6A DEB

АктивенPO
NORAD 61149·DEBRIS·🇨🇳 China

Запущен Aug 6, 2024 с Taiyuan Satellite Launch Center

Loading…

Ближайшие Пролёты (ближайшие 24 часа)

TLE

СвежийSource: Space-Track

Эпоха: Sep 14, 2026, 00:09 UTC

1 61149U 24140QT  26257.00684616  .00000607  00000-0  23932-3 0  9990
2 61149  88.9453 258.9255 0027281 295.7434  64.0945 14.27729800107398

Отслеживайте CZ-6A DEB в реальном времени с AllMySat

Download on the App Store